This is the latest recevied weather packets stored in our database for station/object KC7UNY-13. If no packets are shown the sender has not sent any weather packets the latest 10 day(s).
| Time | Temp. | Humidity | Pressure | Rain* | Wind** | Luminosity | Snow |
|---|---|---|---|---|---|---|---|
| 1777908975 | 23.89° C | 40% | 1012.8 hPa | 0 mm | - | 212 W/m² | - |
| 1777908674 | 23.89° C | 41% | 1012.7 hPa | 0 mm | - | 200 W/m² | - |
| 1777908370 | 23.89° C | 42% | 1012.7 hPa | 0 mm | - | 205 W/m² | - |
| 1777908066 | 23.89° C | 42% | 1012.5 hPa | 0 mm | - | 227 W/m² | - |
| 1777907762 | 23.89° C | 44% | 1012.5 hPa | 0 mm | - | 200 W/m² | - |
| 1777907457 | 23.33° C | 44% | 1012.4 hPa | 0 mm | - | 185 W/m² | - |
| 1777907155 | 23.33° C | 45% | 1012.3 hPa | 0 mm | - | 177 W/m² | - |
| 1777906852 | 23.33° C | 45% | 1012.2 hPa | 0 mm | - | 150 W/m² | - |
| 1777906549 | 22.78° C | 47% | 1012.1 hPa | 0 mm | - | 146 W/m² | - |
| 1777906244 | 22.78° C | 46% | 1012.2 hPa | 0 mm | - | 128 W/m² | - |
| 1777905941 | 22.78° C | 47% | 1012.4 hPa | 0 mm | - | 104 W/m² | - |
| 1777905637 | 22.78° C | 47% | 1012.5 hPa | 0 mm | - | 96 W/m² | - |
| 1777905334 | 22.78° C | 48% | 1012.4 hPa | 0 mm | - | 91 W/m² | - |
| 1777905032 | 22.22° C | 48% | 1012.3 hPa | 0 mm | - | 89 W/m² | - |
| 1777904729 | 22.22° C | 48% | 1012.2 hPa | 0 mm | - | 75 W/m² | - |
| 1777904426 | 22.22° C | 48% | 1012 hPa | 0 mm | - | 65 W/m² | - |
| 1777904123 | 22.22° C | 48% | 1012 hPa | 0 mm | - | 65 W/m² | - |
| 1777903820 | 22.22° C | 49% | 1012.1 hPa | 0 mm | - | 62 W/m² | - |
| 1777903516 | 22.22° C | 48% | 1012.1 hPa | 0 mm | - | 57 W/m² | - |
| 1777903213 | 22.22° C | 48% | 1011.9 hPa | 0 mm | - | 53 W/m² | - |
| 1777902909 | 22.22° C | 47% | 1012 hPa | 0 mm | - | 45 W/m² | - |
| 1777902606 | 22.22° C | 47% | 1012 hPa | 0 mm | - | 37 W/m² | - |
| 1777902303 | 22.22° C | 47% | 1012.2 hPa | 0 mm | - | 33 W/m² | - |
| 1777902000 | 22.22° C | 47% | 1012.2 hPa | 0 mm | - | 29 W/m² | - |
| 1777901699 | 22.22° C | 46% | 1012.1 hPa | 0 mm | - | 26 W/m² | - |
* Rain latest hour (hover to see other rain measurements)
** Current wind speed in m/s (hover to see current wind gust speed)